{"data":{"norad_id":52471,"epoch":"2026-05-25T02:18:11.485728Z","epoch_age_seconds":76955,"freshness":"FRESH","line1":"1 52471U 22049W   26145.09596627 -.00001365  00000+0 -67701-4 0  9999","line2":"2 52471  53.2126  76.1295 0001590  89.9932 270.1242 15.08843207223783","mean_motion":15.08843207,"eccentricity":0.000159,"inclination_deg":53.2126,"raan_deg":76.1295,"arg_perigee_deg":89.9932,"mean_anomaly_deg":270.1242,"bstar":-6.7701e-5,"rev_number":22378,"period_min":95.437351828168,"perigee_km":538.6336450422,"apogee_km":540.83352788869,"semimajor_km":6917.8705864654,"source":"CELESTRAK","updated_at":"2026-05-25T13:38:17.153401Z"}}